Location: Ferchesar
(52.6477°N, 12.4298°E)
Time: 08:49:06
(UTC+01:00)

Transit 2A Rocket - Visible Passes

Search period start: 30 November 2022 00:00
Search period end: 10 December 2022 00:00
Orbit: 589 x 911 km, 66.7° (Epoch: 29 November)

Date Brightness Start Highest point End Pass type
(mag) Time Alt. Az. Time Alt. Az. Time Alt. Az.
30 Nov 5.8 17:19:31 10° WSW 17:23:49 39° NW 17:28:20 11° NNE visible
30 Nov 6.8 19:04:24 10° NW 19:07:45 18° NNW 19:08:12 18° N visible
01 Dec 5.2 16:36:12 10° WSW 16:40:39 56° NW 16:45:32 10° NE visible
01 Dec 6.7 18:20:41 10° WNW 18:24:17 21° NNW 18:26:24 16° NNE visible
01 Dec 7.5 20:05:21 10° NW 20:06:16 13° NNW 20:06:16 13° NNW visible
02 Dec 6.4 17:36:59 10° W 17:40:54 25° NNW 17:44:35 12° NNE visible
02 Dec 7.0 19:21:57 10° NW 19:24:27 16° N 19:24:27 16° N visible
03 Dec 6.0 16:53:23 10° W 16:57:34 32° NNW 17:02:07 10° NNE visible
03 Dec 6.8 18:38:22 10° NW 18:41:40 18° N 18:42:37 17° N visible
03 Dec 7.7 20:22:12 10° NNW 20:22:29 11° NNW 20:22:29 11° NNW visible
04 Dec 6.7 17:54:41 10° WNW 17:58:11 19° NNW 18:00:47 14° NNE visible
04 Dec 7.2 19:39:05 10° NNW 19:40:39 15° NNW 19:40:39 15° NNW visible
05 Dec 6.5 17:10:58 10° WNW 17:14:44 23° NNW 17:18:46 10° NNE visible
05 Dec 6.9 18:55:47 10° NW 18:58:49 17° N 18:58:49 17° N visible
06 Dec 6.8 18:12:18 10° NW 18:15:35 17° N 18:17:00 16° NNE visible
06 Dec 7.4 19:55:49 10° NNW 19:56:52 14° NNW 19:56:52 14° NNW visible
07 Dec 6.7 17:28:40 10° NW 17:32:05 18° N 17:35:10 12° NNE visible
07 Dec 6.9 19:12:44 10° NNW 19:15:02 18° N 19:15:02 18° N visible
08 Dec 6.6 16:44:57 10° WNW 16:48:36 21° NNW 16:52:29 10° NNE visible
08 Dec 6.7 18:29:31 10° NW 18:33:01 18° N 18:33:13 18° NNE visible
08 Dec 7.5 20:12:20 10° NNW 20:13:05 14° NNW 20:13:05 14° NNW visible
09 Dec 6.8 17:46:09 10° NW 17:49:30 17° N 17:51:25 15° NNE visible
09 Dec 7.0 19:29:22 10° NNW 19:31:17 19° NNW 19:31:17 19° NNW visible
